{"data":{"norad_id":67642,"epoch":"2026-05-25T02:02:56.430240Z","epoch_age_seconds":57737,"freshness":"FRESH","line1":"1 67642U 26020AB  26145.08537535  .00011732  00000+0  43499-3 0  9994","line2":"2 67642  43.0025  68.6479 0000344 194.2314 165.8528 15.27592852 17791","mean_motion":15.27592852,"eccentricity":3.44e-5,"inclination_deg":43.0025,"raan_deg":68.6479,"arg_perigee_deg":194.2314,"mean_anomaly_deg":165.8528,"bstar":0.00043499,"rev_number":1779,"period_min":94.265955625197,"perigee_km":482.7745893201,"apogee_km":483.24663627586,"semimajor_km":6861.147612798,"source":"CELESTRAK","updated_at":"2026-05-25T13:38:21.655103Z"}}